www.pogodaiklimat.ru

Погода и климат >> Архив погоды >> Узбекистан >> Чимбай


АРХИВ ПОГОДЫ в Чимбае

Время (UTC), дата Ветер
(напр.,м/с)
 
Видим.   Явления Облачность Т
(С)
Тd
(С)
f
(%)
Тe
(С)
Тes
(С)
Комфортность P
(гПа)
Po
(гПа)
Тmin
(С)
Tmax
(С)
R
(мм)
R24
(мм)
S
(см)
18 10.09 С 1 н/о ясно +13.5 +7.4 67 +14 +14 1023.6 1015.6 +25.1
21 10.09 С 1 н/о ясно +12.2 +5.8 65 +12 +12 1023.1 1015.2
00 11.09 СВ 1 н/о ясно +11.2 +6.2 71 +11 +11 1024.2 1016.1
03 11.09 СВ 1 20 км 3/0
[Ac trans]
+12.0 +6.5 69 +12 +13 1024.7 1016.7
06 11.09 СВ 2 20 км ясно +23.6 +8.9 39 +24 +34 комфорт 1025.7 1018.0 +10.9
09 11.09 СВ 2 20 км 4/4 1000 м
[Cu med, cong]
+25.0 +8.2 34 +25 +33 комфорт 1024.8 1017.1
12 11.09 СВ 2 20 км ясно +25.8 +6.5 29 +25 +29 комфорт 1024.1 1016.4
15 11.09 С 1 10 км ясно +19.4 +7.3 45 +21 +21 комфорт 1024.4 1016.5 +27.0
18 11.09 С 2 н/о ясно +15.1 +6.7 57 +15 +15 1025.1 1017.1 +27.0
21 11.09 С 2 н/о ясно +13.3 +5.5 59 +13 +13 1025.3 1017.3
00 12.09 С 2 н/о ясно +11.9 +5.5 65 +11 +11 1025.2 1017.2
03 12.09 С 1 20 км 3/0
[Ci sp]
+11.8 +5.6 66 +12 +13 1025.9 1017.9
06 12.09 СВ 3 20 км 4/0
[Ac trans]
+23.2 +7.3 36 +24 +30 комфорт 1025.6 1017.9 +11.0
09 12.09 СВ 3 20 км 5/0
[Ci sp]
+26.5 +8.8 33 +27 +36 жарко 1022.5 1015.0
12 12.09 С 2 20 км 5/0
[Ac trans Ci sp]
+27.2 +5.6 25 +26 +29 жарко 1020.6 1013.1
15 12.09 С 1 10 км 6/0
[Ac trans Ci sp]
+19.9 +8.6 48 +22 +22 комфорт 1020.2 1012.4 +28.4
18 12.09 С 2 н/о 9/0
[Ac trans Ci sp]
+19.2 +8.4 50 +21 +21 комфорт 1020.9 1013.1 +28.4
21 12.09 СВ 2 н/о 10/0
[Ac trans]
+15.7 +5.5 51 +16 +16 1020.5 1012.6
00 13.09 С 1 н/о 6/0
[Ac trans]
+13.9 +6.4 61 +14 +14 1019.7 1011.8
03 13.09 С 1 20 км 6/0
[Ac trans]
+13.5 +6.7 63 +14 +15 1021.0 1013.1
06 13.09 СВ 1 20 км 10/8 600 м
[Sc Ac trans Ci sp]
+23.4 +7.8 37 +24 +26 комфорт 1020.9 1013.2 +13.0
09 13.09 СВ 1 20 км 8/0
[Ac trans Ci sp]
+25.4 +4.5 26 +25 +32 комфорт 1020.6 1012.9
12 13.09 СВ 1 20 км 8/0
[Ac trans Ci sp]
+26.7 +3.4 22 +25 +27 комфорт 1018.9 1011.4
15 13.09 штиль 0 10 км 9/9 600 м
[Sc]
+22.7 +2.9 27 +22 +22 комфорт 1018.8 1011.1 +28.0
18 13.09 С 2 н/о 8/8 600 м
[Sc Ac trans]
+20.1 +3.2 33 +21 +21 комфорт 1018.6 1010.8
21 13.09 С 2 н/о 8/0
[Ac trans]
+16.1 +4.6 46 +16 +16 1018.5 1010.6
00 14.09 С 2 н/о 9/9 600 м
[Sc]
+15.8 +5.6 51 +16 +16 1018.4 1010.5
03 14.09 С 1 20 км 8/8 600 м
[Sc]
+17.2 +5.1 45 +18 +18 1018.7 1010.9
06 14.09 С 3 20 км 8/0
[Ac trans Ci sp]
+22.6 +5.0 32 +23 +27 комфорт 1019.0 1011.3 +15.1
09 14.09 С 2 20 км 6/0
[Ac trans Ci sp]
+26.3 +2.9 22 +25 +32 комфорт 1018.2 1010.5
12 14.09 СЗ 2 20 км 4/4 1000 м
[Cu med, cong]
+26.4 +3.0 22 +25 +27 комфорт 1017.7 1010.0
15 14.09 СЗ 1 10 км 9/6 600 м
[Cu med, cong Ac trans]
+21.2 +6.1 37 +22 +22 комфорт 1018.1 1010.3 +27.5
18 14.09 СЗ 1 н/о 3/0
[Ac trans]
+17.3 +5.6 46 +18 +18 1018.2 1010.4 +27.5
21 14.09 З 2 н/о ясно +14.8 +5.3 53 +15 +15 1018.2 1010.3
00 15.09 СЗ 1 н/о ясно +12.6 +5.6 62 +13 +13 1017.3 1009.4
03 15.09 З 1 20 км ясно +12.2 +7.0 71 +12 +13 1019.3 1011.4
06 15.09 СЗ 3 20 км ясно +22.0 +6.2 36 +23 +30 комфорт 1020.4 1012.7 +11.4
09 15.09 З 1 20 км 3/3 1000 м
[Cu hum]
+25.8 +4.3 25 +25 +34 комфорт 1019.2 1011.5
12 15.09 Ю 1 20 км 5/3 600 м
[Cu hum Ac trans]
+26.0 +4.3 25 +25 +27 комфорт 1019.1 1011.4
15 15.09 ЮЗ 1 10 км ясно +20.4 +8.1 45 +23 +23 комфорт 1019.4 1011.6 +27.1
18 15.09 ЮЗ 1 н/о ясно +17.3 +7.4 52 +18 +18 1019.6 1011.8 +27.1
21 15.09 ЮЗ 1 н/о ясно +14.6 +6.8 59 +15 +15 1019.5 1011.6
00 16.09 штиль 0 н/о 5/0
[Ac trans]
+13.8 +7.0 64 +14 +14 1019.3 1011.4
03 16.09 ЮЗ 2 20 км 5/0
[Ac trans]
+14.3 +6.7 60 +14 +15 1020.3 1012.4
06 16.09 ЮЗ 3 20 км ясно +23.6 +12.0 48 +25 +33 комфорт 1021.1 1013.4 +13.0
09 16.09 ЮЗ 3 20 км 4/0
[Ci sp]
+28.5 +5.1 23 +27 +36 жарко 1019.1 1011.6
12 16.09 ЮЗ 2 20 км ясно +28.0 +6.7 26 +27 +30 жарко 1019.6 1012.1
15 16.09 ЮВ 1 10 км ясно +20.0 +9.8 52 +22 +22 комфорт 1017.6 1009.8 +29.0
18 16.09 ЮВ 1 н/о ясно +17.0 +6.7 51 +18 +18 1019.4 1011.6 +29.0
21 16.09 Ю 3 н/о ясно +17.0 +6.2 49 +17 +17 1020.0 1012.2
00 17.09 Ю 1 н/о ясно +15.7 +6.2 53 +17 +17 1019.3 1011.4
03 17.09 ЮВ 2 20 км ясно +14.8 +6.4 57 +15 +15 1019.0 1011.1
06 17.09 Ю 4 20 км ясно +25.7 +7.4 31 +26 +32 жарко 1018.0 1010.3 +13.6
09 17.09 Ю 3 20 км 3/0
[Ci sp]
+29.7 +4.3 20 +28 +37 жарко 1016.9 1009.4
12 17.09 Ю 2 20 км 3/3 600 м
[Cu med, cong]
+29.8 +4.8 20 +28 +30 жарко 1015.0 1007.5
15 17.09 штиль 0 20 км 8/3 600 м
[Cb cap Ac und]
+21.1 +10.3 50 +23 +23 комфорт 1014.2 1006.4 +31.2

 

Местоположение метеостанции Чимбай (Каракалпакстан, Узбекистан): широта 42.95 долгота 59.82 высота над уровнем моря 66 м.

В архиве по умолчанию представлена погода в Чимбае за последнюю неделю. Архивные данные за месяц целиком и за предыдущие месяцы, начиная с января 2011 года, Вы можете получить, выбрав интересующий диапазон дат из раскрывающегося списка и нажав кнопку "Ввод!".


*Определитесь, кто Вы:
робот инопланетянин человек

Внимание! Время в таблицах - всемирное. Для получения местного времени необходимо прибавить поправку, которая равна 5 ч.

Смотрите также архив погоды в соседних городах и на ближайших метеорологических станциях:

Погода в Тахтакупыре (Каракалпакстан, Узбекистан) (55 км)
Погода в Нукусе (Каракалпакстан, Узбекистан) (58 км)
Погода в Тахиаташе (Каракалпакстан, Узбекистан) (64 км)
Погода в Кунграде (Каракалпакстан, Узбекистан) (74 км)
Погода в Кенеургенче (Дашогузский велаят, Туркменистан) (92 км)
Погода в Муйнаке (Каракалпакстан, Узбекистан) (125 км)
Погода в Гурлене (Хорезмская область, Узбекистан) (131 км)
Погода в Дашогузе (Дашогузский велаят, Туркменистан) (133 км)
Погода в Ургенче (Хорезмская область, Узбекистан) (165 км)
Погода в Шах-Сенеме (Дашогузский велаят, Туркменистан) (177 км)

Пояснения к столбцам:

Ветер - указаны скорость ветра в м/с - средняя за 10 мин, порывы в срок и между сроками (в фигурных скобках) и направление, откуда дует ветер: С - северный, СВ - северо-восточный, В - восточный, ЮВ - юго-восточный, Ю - южный, ЮЗ - юго-западный, З - западный, СЗ - северо-западный.
Видимость - горизонтальная дальность видимости в метрах или километрах. При видимости от 1 до 10 км при отсутствии осадков обычно наблюдается дымка, при ухудшении видимости до 1 км и менее - туман. В сухую погоду видимость может ухудшаться дымом, пылью или мглою.
Явления - указаны атмосферные явления, наблюдавшиеся в срок или в последний час перед сроком; фигурными скобками обозначены явления, наблюдавшиеся между сроками (за 1-3 часа до срока); квадратными скобками обозначены град или гололедные отложения с указанием их диаметра в мм.
Облачность - указаны через наклонную черту общая и нижняя облачность в баллах и высота нижней границы облаков в метрах; квадратными скобками обозначены формы облаков: Ci - перистые, Cs - перисто-слоистые, Cc - перисто-кучевые, Ac - высококучевые, As - высокослоистые, Sc - слоисто-кучевые, Ns - слоисто-дождевые, Cu - кучевые, Cb - кучево-дождевые. Подробнее классификацию облаков см. в Атласе облаков (PDF).
T - Температура воздуха - температура, измеренная на высоте 2 м над землей.
Td - Температура точки росы - температура, при понижении до которой содержащийся в воздухе водяной пар достигнет насыщения.
f - Относительная влажность воздуха - влажноcть воздуха, измеренная на высоте 2 м над землей.
Te - Эффективная температура - температура, которую ощущает одетый по сезону человек в тени. Характеристика душности погоды. При расчете учитывается влияние влажности воздуха и скорости ветра на теплоощущения человека.
Tes - Эффективная температура на солнце - температура, которую ощущает человек, с поправкой на солнечный нагрев. Характеристика знойности погоды. Зависит от высоты солнца над горизонтом, облачности и скорости ветра. Ночью, в пасмурную погоду, а также при ветре 12 м/с и более поправка равна нулю.
P - Атмосферное давление - приведенное к уровню моря атмосферное давление.
Po - Атмосферное давление - измеренное на уровне метеостанции атмосферное давление.
Tmin - Минимальная температура - минимум температуры воздуха на высоте 2 м над землей.
Tmax - Максимальная температура - максимум температуры воздуха на высоте 2 м над землей.
R - Количество осадков - Количество выпавших осадков за период времени, мм. При наведении курсора мыши на число - период времени, за который выпало указанное количество осадков.
R24 - Количество осадков - Количество выпавших осадков за 24 часа, мм.
S - Снежный покров - Высота снежного покрова, см. При наведении курсора мыши на число - состояние снежного покрова и степень покрытия местности в баллах.